一网星座-0418星 (ONEWEB-0418 )

导读 | 豆包AI

ONEWEB-0418是英国OneWeb星座下的低轨互联网通信卫星,于2021年12月27日发射升空,该卫星由OneWeb与空客合资工厂制造,重量约147.5公斤,运行在近地轨道,工作于Ku频段,用于提供全球宽带互联网接入服务。作为OneWeb全球组网进程中的一颗卫星,它助力OneWeb推进星座部署,服务偏远地区网络覆盖与全球连通性建设,卫星设计遵循25年安全脱轨规范,减缓空间碎片问题。

基本信息
目录编号:
50493
目录名称:
ONEWEB-0418
国际标识:
2021-132AA
轨道中心:
EARTH
卫星名称:
一网星座-0418星
卫星全名:
一网星座-0418星 (ONEWEB-0418 )
卫星状态:
在轨 (已飞行1585 天)
发射日期:
2021-12-27 UTC
国别 :
英国 (GB)
星等 :
--
轨道信息
数据来源 国际轨道数据
星历时间: 2026-04-30T11:49:09+0800
5小时前
查看轨道信息
半长轴: 7568.206km
偏心率: 0.0001644
轨道倾角: 87.920°
近地点辐角 95.365°
升交点赤经 345.010°
平近点角 264.767°
近地点: 1188.824km
远地点: 1191.314km
周期: 109.207分钟
每日圈数: 13.186009
详细信息
平衡模式:
三轴稳定
覆盖范围:
全球
运营商:
一网卫星公司
运营商所在国:
英国
制造商(研发单位):
一网卫星公司
制造商所在国:
英国
使用方式:
暂无
卫星简介
OneWeb卫星网络由648颗重约125公斤的微型卫星组成,运行在1200公里的轨道上。 每颗卫星都能够提供至少每秒8千兆位的吞吐量,以使用其高吞吐量的Ku频段有效载荷为家庭和移动平台提供互联网接入。该卫星仍在工作。
2D轨道图
3D轨道图
轨道高度分析图
轨道倾角分析图
轨道综合分析图
查看轨道综合分析图